Rbgn^[z[y[W
メイン
   新天体発見情報
     Comet P/2005 XA54 (LONEOS-Hill)
投稿するにはまず登録を

フラット表示 前のトピック | 次のトピック
投稿者 スレッド
佐藤裕久
投稿日時: 2006-1-7 22:35
モデレータ
登録日: 2005-6-12
居住地: 日本
投稿: 2676
オンライン
Comet P/2005 XA54 (LONEOS-Hill)

Rik Hillは、1月6日、Catalinaスカイサーベイの画像から西北西におよそ20″伸びた彗星を
発見した。 T. Spahr(小惑星センター)によって、12月4日LONEOSによって見つけられた天体
2005 XA54と同じであることがわかった。

発見位置は次のとおり、

     2005/6 UT           R.A. (2000) Decl.       Mag.   Observer
     Dec.  4.37744    9 20 54.64   + 3 00 13.2   18.5   LONEOS
     Jan.  6.41154    9 56 51.97   + 3 42 03.8   17.1   Hill

軌道要素と位置推算表は次のとおり、

Orbital elements:
    P/2005 XA54 (LONEOS-Hill)
Epoch 2006 Mar. 6.0 TT = JDT 2453800.5
T 2006 Mar. 8.04199 TT                                  MPC
q   1.7763778            (2000.0)            P               Q
n   0.06543068     Peri.   15.45179     -0.93107249     -0.32287650
a   6.0993247      Node   144.23252     +0.29630394     -0.94086296
e   0.7087583      Incl.   16.89512     +0.21285676     -0.10260434
P  15.06
From 40 observations 2005 Dec. 4-2006 Jan. 4.

Ephemeris:
    P/2005 XA54 (LONEOS-Hill)
Date    TT    R. A. (2000) Decl.     Delta      r     Elong.  Phase     V
2006 01 05    09 55.70   +03 33.0    1.078    1.898   134.0    21.9    17.2
2006 01 15    10 03.16   +04 56.0    0.981    1.863   143.0    18.5    16.9
2006 01 25    10 08.64   +07 04.0    0.902    1.834   152.9    14.2    16.5
2006 02 04    10 12.22   +09 56.0    0.843    1.810   163.5     8.9    16.1
2006 02 14    10 14.40   +13 20.6    0.808    1.793   173.9     3.4    15.7
2006 02 24    10 15.97   +16 57.2    0.796    1.781   172.1     4.4    15.7
2006 03 06    10 17.96   +20 20.2    0.808    1.777   161.5    10.2    16.0
2006 03 16    10 21.45   +23 07.3    0.842    1.779   151.1    15.7    16.3
2006 03 26    10 27.10   +25 05.9    0.894    1.787   141.7    20.2    16.6
2006 04 05    10 35.20   +26 12.7    0.963    1.802   133.3    23.8    16.9
2006 04 15    10 45.65   +26 31.3    1.045    1.824   125.8    26.5    17.2
2006 04 25    10 58.06   +26 08.6    1.138    1.851   119.2    28.3    17.5
2006 05 05    11 12.00   +25 11.9    1.242    1.883   113.3    29.5    17.7
2006 05 15    11 27.04   +23 48.6    1.354    1.921   107.8    30.1    18.0
2006 05 25    11 42.78   +22 05.2    1.474    1.964   102.7    30.2    18.2
2006 06 04    11 58.99   +20 07.0    1.602    2.010    97.9    30.0    18.4
2006 06 14    12 15.45   +17 59.0    1.737    2.061    93.2    29.5    18.7
2006 06 24    12 32.01   +15 44.9    1.878    2.114    88.7    28.7    18.9
2006 07 04    12 48.63   +13 27.9    2.024    2.171    84.2    27.8    19.0
2006 07 14    13 05.23   +11 10.7    2.176    2.230    79.7    26.6    19.2
2006 07 24    13 21.79   +08 55.3    2.331    2.291    75.1    25.4    19.4
2006 08 03    13 38.33   +06 43.3    2.489    2.354    70.5    24.0    19.6
2006 08 13    13 54.81   +04 36.2    2.649    2.419    65.9    22.5    19.7
2006 08 23    14 11.25   +02 34.9    2.810    2.485    61.1    20.9    19.8

Computer: Williams 

(IAUC 8656、MPEC 2006-A26)
フラット表示 前のトピック | 次のトピック

題名 投稿者 日時
 » Comet P/2005 XA54 (LONEOS-Hill) 佐藤裕久 2006-1-7 22:35

投稿するにはまず登録を
 
© 1999 Tsutomu Seki.